Time,TemperatureF,DewpointF,PressureIn,WindDirection,WindDirectionDegrees,WindSpeedMPH,WindSpeedGustMPH,Humidity,HourlyPrecipIn,Conditions,Clouds,dailyrainin,SoftwareType,DateUTC
2013-09-06 00:00:00,62.4,60.7,30.16,NNW,341,0.0,0.0,94,0.00,CLR,OVC,0.00,WeatherDisplay:10.37,2013-09-06 04:00:00,
2013-09-06 00:15:00,63.3,61.2,30.15,NNW,331,0.0,2.0,93,0.00,CLR,OVC,0.00,WeatherDisplay:10.37,2013-09-06 04:15:00,
2013-09-06 00:30:00,65.4,61.4,30.16,WSW,253,0.0,2.0,87,0.00,CLR,OVC,0.00,WeatherDisplay:10.37,2013-09-06 04:30:00,
2013-09-06 00:45:00,66.6,61.6,30.16,NW,310,1.0,4.0,84,0.00,CLR,OVC,0.00,WeatherDisplay:10.37,2013-09-06 04:45:00,
2013-09-06 01:00:00,67.9,61.2,30.16,NW,318,1.0,3.0,79,0.00,CLR,OVC,0.00,WeatherDisplay:10.37,2013-09-06 05:00:00,
2013-09-06 01:15:00,68.3,61.5,30.16,NW,321,0.0,5.0,79,0.00,CLR,OVC,0.00,WeatherDisplay:10.37,2013-09-06 05:15:00,
2013-09-06 01:30:00,68.2,61.4,30.16,West,268,0.0,3.0,79,0.00,CLR,OVC,0.00,WeatherDisplay:10.37,2013-09-06 05:30:00,
2013-09-06 01:45:00,68.2,61.1,30.16,NNW,335,1.0,4.0,78,0.00,CLR,OVC,0.00,WeatherDisplay:10.37,2013-09-06 05:45:00,
2013-09-06 02:00:00,68.9,61.4,30.16,NW,318,2.0,4.0,77,0.00,CLR,OVC,0.00,WeatherDisplay:10.37,2013-09-06 06:00:00,
2013-09-06 02:15:00,68.8,61.3,30.16,NW,315,1.0,5.0,77,0.00,CLR,OVC,0.00,WeatherDisplay:10.37,2013-09-06 06:15:00,
2013-09-06 02:30:00,68.3,61.2,30.15,NW,325,1.0,5.0,78,0.00,CLR,OVC,0.00,WeatherDisplay:10.37,2013-09-06 06:30:00,
2013-09-06 02:45:00,68.1,61.0,30.15,NW,315,1.0,5.0,78,0.00,CLR,OVC,0.00,WeatherDisplay:10.37,2013-09-06 06:45:00,
2013-09-06 03:00:00,67.9,61.1,30.15,NNW,328,2.0,5.0,79,0.00,CLR,OVC,0.00,WeatherDisplay:10.37,2013-09-06 07:00:00,
2013-09-06 03:15:00,67.6,61.2,30.16,NW,306,0.0,4.0,80,0.00,CLR,OVC,0.00,WeatherDisplay:10.37,2013-09-06 07:15:00,
2013-09-06 03:30:00,67.3,60.9,30.16,WNW,303,0.0,3.0,80,0.00,CLR,OVC,0.00,WeatherDisplay:10.37,2013-09-06 07:30:00,
2013-09-06 03:45:00,67.5,61.1,30.16,NNW,335,1.0,4.0,80,0.00,CLR,OVC,0.00,WeatherDisplay:10.37,2013-09-06 07:45:00,
2013-09-06 04:00:00,68.2,61.1,30.16,NNW,331,0.0,8.0,78,0.00,CLR,OVC,0.00,WeatherDisplay:10.37,2013-09-06 08:00:00,
2013-09-06 04:15:00,67.8,61.1,30.15,NNW,338,1.0,7.0,79,0.00,FEW,OVC,0.00,WeatherDisplay:10.37,2013-09-06 08:15:00,
2013-09-06 04:30:00,67.4,60.7,30.16,NE,50,0.0,7.0,79,0.00,FEW,OVC,0.00,WeatherDisplay:10.37,2013-09-06 08:30:00,
2013-09-06 04:45:00,67.0,60.3,30.17,East,96,1.0,5.0,79,0.00,FEW,OVC,0.00,WeatherDisplay:10.37,2013-09-06 08:45:00,
2013-09-06 05:00:00,66.4,59.7,30.17,NNE,21,0.0,3.0,79,0.00,FEW,OVC,0.00,WeatherDisplay:10.37,2013-09-06 09:00:00,
2013-09-06 05:15:00,66.1,59.0,30.17,SW,219,1.0,6.0,78,0.00,SCT,OVC,0.00,WeatherDisplay:10.37,2013-09-06 09:15:00,
2013-09-06 05:30:00,65.9,58.5,30.17,SW,229,1.0,4.0,77,0.00,SCT,OVC,0.00,WeatherDisplay:10.37,2013-09-06 09:30:00,
2013-09-06 05:45:00,65.4,58.0,30.18,East,100,1.0,4.0,77,0.00,SCT,OVC,0.00,WeatherDisplay:10.37,2013-09-06 09:45:00,
2013-09-06 06:00:00,65.0,58.0,30.18,SE,127,0.0,3.0,78,0.00,SCT,OVC,0.00,WeatherDisplay:10.37,2013-09-06 10:00:00,
2013-09-06 06:15:00,64.5,57.5,30.19,East,101,0.0,4.0,78,0.00,FEW,OVC,0.00,WeatherDisplay:10.37,2013-09-06 10:15:00,
2013-09-06 06:30:00,64.3,57.3,30.19,South,169,1.0,4.0,78,0.00,FEW,OVC,0.00,WeatherDisplay:10.37,2013-09-06 10:30:00,
2013-09-06 06:45:00,63.8,56.4,30.19,SE,125,0.0,4.0,77,0.00,FEW,OVC,0.00,WeatherDisplay:10.37,2013-09-06 10:45:00,
2013-09-06 07:00:00,63.7,55.6,30.20,East,95,1.0,5.0,75,0.00,FEW,OVC,0.00,WeatherDisplay:10.37,2013-09-06 11:00:00,
2013-09-06 07:15:00,63.4,55.3,30.20,ESE,114,1.0,6.0,75,0.00,FEW,OVC,0.00,WeatherDisplay:10.37,2013-09-06 11:15:00,
2013-09-06 07:30:00,63.4,55.3,30.20,ESE,114,1.0,4.0,75,0.00,FEW,OVC,0.00,WeatherDisplay:10.37,2013-09-06 11:30:00,
2013-09-06 07:45:00,63.7,56.0,30.21,NNW,330,1.0,4.0,76,0.00,FEW,OVC,0.00,WeatherDisplay:10.37,2013-09-06 11:45:00,
2013-09-06 08:00:00,65.5,56.7,30.22,ESE,105,1.0,5.0,73,0.00,FEW,OVC,0.00,WeatherDisplay:10.37,2013-09-06 12:00:00,
2013-09-06 08:15:00,66.9,56.8,30.22,SSE,154,1.0,5.0,70,0.00,FEW,OVC,0.00,WeatherDisplay:10.37,2013-09-06 12:15:00,
2013-09-06 08:30:00,67.7,56.3,30.22,SE,130,1.0,8.0,67,0.00,FEW,OVC,0.00,WeatherDisplay:10.37,2013-09-06 12:30:00,
2013-09-06 08:45:00,68.4,57.0,30.22,ESE,117,1.0,6.0,67,0.00,FEW,OVC,0.00,WeatherDisplay:10.37,2013-09-06 12:45:00,
2013-09-06 09:00:00,69.4,58.0,30.22,ESE,123,0.0,4.0,67,0.00,FEW,OVC,0.00,WeatherDisplay:10.37,2013-09-06 13:00:00,
2013-09-06 09:15:00,70.0,57.2,30.23,SW,219,0.0,6.0,64,0.00,FEW,OVC,0.00,WeatherDisplay:10.37,2013-09-06 13:15:00,
2013-09-06 09:30:00,71.0,56.4,30.23,East,96,2.0,6.0,60,0.00,FEW,OVC,0.00,WeatherDisplay:10.37,2013-09-06 13:30:00,
2013-09-06 09:45:00,71.4,55.3,30.23,SSE,167,2.0,6.0,57,0.00,FEW,OVC,0.00,WeatherDisplay:10.37,2013-09-06 13:45:00,
2013-09-06 10:00:00,72.4,56.3,30.23,WSW,254,1.0,6.0,57,0.00,FEW,OVC,0.00,WeatherDisplay:10.37,2013-09-06 14:00:00,
2013-09-06 10:15:00,72.4,56.3,30.24,SSW,207,2.0,7.0,57,0.00,FEW,OVC,0.00,WeatherDisplay:10.37,2013-09-06 14:15:00,
2013-09-06 10:30:00,73.1,55.5,30.24,ESE,111,1.0,9.0,54,0.00,FEW,OVC,0.00,WeatherDisplay:10.37,2013-09-06 14:30:00,
2013-09-06 10:45:00,74.2,56.0,30.24,SSE,147,1.0,6.0,53,0.00,FEW,OVC,0.00,WeatherDisplay:10.37,2013-09-06 14:45:00,
2013-09-06 11:00:00,75.1,57.3,30.24,ENE,61,2.0,6.0,54,0.00,FEW,OVC,0.00,WeatherDisplay:10.37,2013-09-06 15:00:00,
2013-09-06 11:15:00,74.6,56.3,30.24,NNE,12,1.0,7.0,53,0.00,SCT,OVC,0.00,WeatherDisplay:10.37,2013-09-06 15:15:00,
2013-09-06 11:30:00,75.8,58.0,30.24,SE,128,2.0,5.0,54,0.00,SCT,OVC,0.00,WeatherDisplay:10.37,2013-09-06 15:30:00,
2013-09-06 11:45:00,76.2,57.8,30.24,North,3,2.0,5.0,53,0.00,SCT,OVC,0.00,WeatherDisplay:10.37,2013-09-06 15:45:00,
2013-09-06 12:00:00,76.4,58.5,30.23,NNW,331,1.0,5.0,54,0.00,SCT,OVC,0.00,WeatherDisplay:10.37,2013-09-06 16:00:00,
2013-09-06 12:15:00,76.6,58.7,30.23,East,100,1.0,6.0,54,0.00,FEW,OVC,0.00,WeatherDisplay:10.37,2013-09-06 16:15:00,
2013-09-06 12:30:00,77.7,59.7,30.22,ESE,113,1.0,6.0,54,0.00,FEW,OVC,0.00,WeatherDisplay:10.37,2013-09-06 16:30:00,
2013-09-06 12:45:00,77.7,58.1,30.22,NNW,339,1.0,5.0,51,0.00,FEW,OVC,0.00,WeatherDisplay:10.37,2013-09-06 16:45:00,
2013-09-06 13:00:00,78.3,59.8,30.22,SE,139,3.0,6.0,53,0.00,FEW,OVC,0.00,WeatherDisplay:10.37,2013-09-06 17:00:00,
2013-09-06 13:15:00,78.3,59.2,30.21,East,83,0.0,8.0,52,0.00,FEW,OVC,0.00,WeatherDisplay:10.37,2013-09-06 17:15:00,
2013-09-06 13:30:00,79.0,60.4,30.21,NW,304,1.0,6.0,53,0.00,FEW,OVC,0.00,WeatherDisplay:10.37,2013-09-06 17:30:00,
2013-09-06 13:45:00,78.5,59.9,30.20,WSW,241,0.0,8.0,53,0.00,FEW,OVC,0.00,WeatherDisplay:10.37,2013-09-06 17:45:00,
2013-09-06 14:00:00,78.2,60.2,30.20,ENE,59,1.0,6.0,54,0.00,FEW,OVC,0.00,WeatherDisplay:10.37,2013-09-06 18:00:00,
2013-09-06 14:15:00,79.2,61.1,30.19,North,8,1.0,4.0,54,0.00,SCT,OVC,0.00,WeatherDisplay:10.37,2013-09-06 18:15:00,
2013-09-06 14:30:00,79.7,60.5,30.19,NNE,27,1.0,6.0,52,0.00,SCT,OVC,0.00,WeatherDisplay:10.37,2013-09-06 18:30:00,
2013-09-06 14:45:00,78.6,60.0,30.18,SE,131,1.0,4.0,53,0.00,SCT,OVC,0.00,WeatherDisplay:10.37,2013-09-06 18:45:00,
2013-09-06 15:00:00,79.6,59.9,30.18,North,0,1.0,5.0,51,0.00,SCT,OVC,0.00,WeatherDisplay:10.37,2013-09-06 19:00:00,
2013-09-06 15:15:00,79.2,60.1,30.17,North,5,1.0,4.0,52,0.00,SCT,OVC,0.00,WeatherDisplay:10.37,2013-09-06 19:15:00,
2013-09-06 15:30:00,79.8,61.1,30.17,SE,131,0.0,6.0,53,0.00,SCT,OVC,0.00,WeatherDisplay:10.37,2013-09-06 19:30:00,
2013-09-06 15:45:00,79.5,59.8,30.16,East,90,2.0,5.0,51,0.00,SCT,OVC,0.00,WeatherDisplay:10.37,2013-09-06 19:45:00,
2013-09-06 16:00:00,80.1,58.6,30.16,SSE,147,1.0,5.0,48,0.00,SCT,OVC,0.00,WeatherDisplay:10.37,2013-09-06 20:00:00,
2013-09-06 16:15:00,80.6,61.4,30.16,NE,36,1.0,4.0,52,0.00,SCT,OVC,0.00,WeatherDisplay:10.37,2013-09-06 20:15:00,
2013-09-06 16:30:00,80.1,59.7,30.15,ENE,63,1.0,5.0,50,0.00,SCT,OVC,0.00,WeatherDisplay:10.37,2013-09-06 20:30:00,
2013-09-06 16:45:00,79.0,59.9,30.15,NW,321,1.0,3.0,52,0.00,SCT,OVC,0.00,WeatherDisplay:10.37,2013-09-06 20:45:00,
2013-09-06 17:00:00,78.7,59.0,30.15,NW,304,0.0,5.0,51,0.00,SCT,OVC,0.00,WeatherDisplay:10.37,2013-09-06 21:00:00,
2013-09-06 17:15:00,78.6,60.6,30.15,East,99,1.0,4.0,54,0.00,SCT,OVC,0.00,WeatherDisplay:10.37,2013-09-06 21:15:00,
2013-09-06 17:30:00,77.7,60.2,30.15,ESE,121,1.0,3.0,55,0.00,SCT,OVC,0.00,WeatherDisplay:10.37,2013-09-06 21:30:00,
2013-09-06 17:45:00,78.1,60.6,30.14,SE,124,1.0,4.0,55,0.00,SCT,OVC,0.00,WeatherDisplay:10.37,2013-09-06 21:45:00,
2013-09-06 18:00:00,77.6,59.1,30.14,East,96,1.0,4.0,53,0.00,SCT,OVC,0.00,WeatherDisplay:10.37,2013-09-06 22:00:00,
2013-09-06 18:15:00,77.0,59.6,30.14,East,90,1.0,3.0,55,0.00,FEW,OVC,0.00,WeatherDisplay:10.37,2013-09-06 22:15:00,
2013-09-06 18:30:00,76.5,60.1,30.14,SE,127,0.0,2.0,57,0.00,FEW,OVC,0.00,WeatherDisplay:10.37,2013-09-06 22:30:00,
2013-09-06 18:45:00,75.9,61.9,30.14,SSE,163,0.0,0.0,62,0.00,FEW,OVC,0.00,WeatherDisplay:10.37,2013-09-06 22:45:00,
2013-09-06 19:00:00,74.8,61.8,30.14,ESE,120,0.0,2.0,64,0.00,FEW,OVC,0.00,WeatherDisplay:10.37,2013-09-06 23:00:00,
2013-09-06 19:15:00,74.1,61.6,30.14,ESE,115,0.0,1.0,65,0.00,CLR,OVC,0.00,WeatherDisplay:10.37,2013-09-06 23:15:00,
2013-09-06 19:30:00,73.0,60.9,30.14,ESE,114,0.0,0.0,66,0.00,CLR,OVC,0.00,WeatherDisplay:10.37,2013-09-06 23:30:00,
2013-09-06 19:45:00,70.1,61.0,30.14,ESE,115,0.0,0.0,73,0.00,CLR,OVC,0.00,WeatherDisplay:10.37,2013-09-06 23:45:00,
2013-09-06 20:00:00,67.5,60.7,30.15,ESE,114,0.0,0.0,79,0.00,CLR,OVC,0.00,WeatherDisplay:10.37,2013-09-07 00:00:00,
2013-09-06 20:15:00,65.5,59.5,30.15,ESE,115,0.0,0.0,81,0.00,FEW,OVC,0.00,WeatherDisplay:10.37,2013-09-07 00:15:00,
2013-09-06 20:30:00,63.9,59.3,30.16,ESE,114,0.0,0.0,85,0.00,FEW,OVC,0.00,WeatherDisplay:10.37,2013-09-07 00:30:00,
2013-09-06 20:45:00,63.0,58.7,30.17,ESE,114,0.0,0.0,86,0.00,FEW,OVC,0.00,WeatherDisplay:10.37,2013-09-07 00:45:00,
2013-09-06 21:00:00,62.6,59.0,30.17,ESE,114,0.0,0.0,88,0.00,FEW,OVC,0.00,WeatherDisplay:10.37,2013-09-07 01:00:00,
2013-09-06 21:15:00,62.3,59.3,30.17,ESE,114,0.0,0.0,90,0.00,CLR,OVC,0.00,WeatherDisplay:10.37,2013-09-07 01:15:00,
2013-09-06 21:30:00,62.0,59.0,30.17,ESE,114,0.0,0.0,90,0.00,CLR,OVC,0.00,WeatherDisplay:10.37,2013-09-07 01:30:00,
2013-09-06 21:45:00,62.3,59.0,30.17,ESE,114,0.0,0.0,89,0.00,CLR,OVC,0.00,WeatherDisplay:10.37,2013-09-07 01:45:00,
2013-09-06 22:00:00,61.9,58.6,30.17,ESE,114,0.0,0.0,89,0.00,CLR,OVC,0.00,WeatherDisplay:10.37,2013-09-07 02:00:00,
2013-09-06 22:15:00,61.6,58.4,30.18,ESE,114,0.0,0.0,89,0.00,CLR,OVC,0.00,WeatherDisplay:10.37,2013-09-07 02:15:00,
2013-09-06 22:30:00,61.6,58.0,30.18,ESE,114,0.0,0.0,88,0.00,CLR,OVC,0.00,WeatherDisplay:10.37,2013-09-07 02:30:00,
2013-09-06 22:45:00,62.0,58.0,30.18,ESE,114,0.0,0.0,87,0.00,CLR,OVC,0.00,WeatherDisplay:10.37,2013-09-07 02:45:00,
2013-09-06 23:00:00,62.0,58.1,30.18,ESE,114,0.0,0.0,87,0.00,CLR,OVC,0.00,WeatherDisplay:10.37,2013-09-07 03:00:00,
2013-09-06 23:15:00,61.5,57.6,30.18,SSE,158,0.0,0.0,87,0.00,CLR,OVC,0.00,WeatherDisplay:10.37,2013-09-07 03:15:00,
2013-09-06 23:30:00,62.0,57.8,30.18,South,176,0.0,0.0,86,0.00,CLR,OVC,0.00,WeatherDisplay:10.37,2013-09-07 03:30:00,
2013-09-06 23:45:00,62.9,57.7,30.18,ESE,114,0.0,1.0,83,0.00,CLR,OVC,0.00,WeatherDisplay:10.37,2013-09-07 03:45:00,